Location: Batang Balui
(2.7000°N, 113.7833°E)
Time: 02:43:28
(UTC+00:00)

Hubble Space Telescope - Pass Details

Date: 02 December 2022
Orbit: 529 x 532 km, 28.5° (Epoch: 06 February)

Event Time Altitude Azimuth Distance (km) Brightness Sun altitude
Exits shadow 20:27:17 53° 109° (ESE) 647 1.4 -25.8°
Drops below altitude 10° 20:30:42 10° 69° (ENE) 1,758 4.0 -25.0°
Sets 20:32:58 0° 66° (ENE) 2,645 4.9 -24.5°
